Lafayette, LA

4:37 PM CDT on August 29, 2016 (GMT -0500)
Lafayette Regional

Weather History for KLFT - September, 2013

Change the Weather History Date:

Thursday, September 26, 2013

  Actual Average Record
Temperature  
Mean Temperature 78 °F 76 °F  
Max Temperature 91 °F 86 °F 97 °F (1931)
Min Temperature 64 °F 66 °F 43 °F (1899)
Degree Days  
Heating Degree Days 0 0  
Month to date heating degree days 0 0  
Since 1 July heating degree days 0 0  
Cooling Degree Days 13 11  
Month to date cooling degree days 449 384  
Year to date cooling degree days 2551 2645  
Growing Degree Days 27 (Base 50)    
Moisture  
Dew Point 64 °F    
Average Humidity 63    
Maximum Humidity 93    
Minimum Humidity 32    
Precipitation  
Precipitation 0.00 in 0.15 in 2.17 in (1957)
Month to date precipitation 3.59 4.12  
Year to date precipitation 46.47 44.74  
Sea Level Pressure  
Sea Level Pressure 29.89 in    
Wind  
Wind Speed 1 mph (NNE)    
Max Wind Speed 10 mph    
Max Gust Speed -    
Visibility 10 miles    
Events      
T = Trace of Precipitation, MM = Missing Value Source: NWS Daily Summary

Daily Weather History Graph

Daily Weather History Graph

Search for Another Location

Airport or City:

Trip Planner

Search our weather history database for the weather conditions in past years. The results will help you decide how hot, cold, wet, or windy it might be!

Date:

Astronomy

Sep. 26, 2013 Rise Set
Actual Time 6:58 AM CDT 6:59 PM CDT
Civil Twilight 6:34 AM CDT 7:23 PM CDT
Nautical Twilight 6:06 AM CDT 7:50 PM CDT
Astronomical Twilight 5:38 AM CDT 8:18 PM CDT
Moon No Moon Rise 1:30 PM CDT (9/26)
Length of Visible Light 12h 48m
Length of Day
12h 00m
Waning Gibbous, 54% of the Moon is Illuminated
Sep 26
Waning Gibbous
Sep 26
Last Quarter
Oct 4
New
Oct 11
First Quarter
Oct 18
Full

Hourly Weather History & Observations

Time (CDT) Temp. Heat Index Dew Point Humidity Pressure Visibility Wind Dir Wind Speed Gust Speed Precip Events Conditions
12:53 AM 68.0 °F - 66.0 °F 93% 29.83 in 10.0 mi Calm Calm - N/A   Clear
1:53 AM 68.0 °F - 63.0 °F 84% 29.83 in 10.0 mi Calm Calm - N/A   Clear
2:53 AM 66.9 °F - 64.9 °F 93% 29.84 in 10.0 mi Calm Calm - N/A   Clear
3:53 AM 66.0 °F - 63.0 °F 90% 29.85 in 10.0 mi Calm Calm - N/A   Clear
4:53 AM 66.0 °F - 63.0 °F 90% 29.86 in 10.0 mi Calm Calm - N/A   Clear
5:53 AM 64.9 °F - 62.1 °F 90% 29.87 in 10.0 mi Calm Calm - N/A   Clear
6:53 AM 64.9 °F - 62.1 °F 90% 29.88 in 10.0 mi Calm Calm - N/A   Clear
7:53 AM 68.0 °F - 64.0 °F 87% 29.90 in 10.0 mi Calm Calm - N/A   Clear
8:53 AM 73.0 °F - 66.0 °F 79% 29.92 in 10.0 mi Calm Calm - N/A   Clear
9:53 AM 79.0 °F - 66.9 °F 66% 29.94 in 10.0 mi Calm Calm - N/A   Clear
10:53 AM 84.0 °F 84.9 °F 63.0 °F 49% 29.95 in 10.0 mi Calm Calm - N/A   Clear
11:53 AM 86.0 °F 88.2 °F 66.0 °F 51% 29.94 in 10.0 mi Calm Calm - N/A   Clear
12:53 PM 87.1 °F 86.5 °F 59.0 °F 39% 29.93 in 10.0 mi Calm Calm - N/A   Clear
1:53 PM 89.1 °F 88.0 °F 57.9 °F 35% 29.90 in 10.0 mi NNE 3.5 mph - N/A   Clear
2:53 PM 90.0 °F 88.8 °F 57.9 °F 34% 29.89 in 10.0 mi North 4.6 mph - N/A   Clear
3:53 PM 90.0 °F 87.9 °F 55.0 °F 30% 29.88 in 10.0 mi Variable 3.5 mph - N/A   Clear
4:53 PM 90.0 °F 88.8 °F 57.9 °F 34% 29.87 in 10.0 mi NNE 4.6 mph - N/A   Clear
5:53 PM 87.1 °F 88.3 °F 64.0 °F 46% 29.87 in 10.0 mi Calm Calm - N/A   Clear
6:53 PM 82.0 °F 84.1 °F 66.0 °F 58% 29.89 in 10.0 mi Calm Calm - N/A   Clear
7:53 PM 78.1 °F - 68.0 °F 71% 29.89 in 10.0 mi Calm Calm - N/A   Clear
8:53 PM 75.0 °F - 68.0 °F 79% 29.91 in 10.0 mi Calm Calm - N/A   Clear
9:53 PM 73.0 °F - 68.0 °F 84% 29.93 in 10.0 mi Calm Calm - N/A   Clear
10:53 PM 72.0 °F - 69.1 °F 91% 29.94 in 10.0 mi Calm Calm - N/A   Clear
11:53 PM 71.1 °F - 68.0 °F 90% 29.94 in 10.0 mi Calm Calm - N/A   Clear